Dewpoint
59 59 59 59 59 59 59 59 59 59 59 59 59 58 58 59 46 46 49 53 55 53 57 66 66 66 66 66 68 68 68 68 68
58 58 57 57 58 58 58 58 58 58 58 59 58 57 57 54 49 47 56 58 60 59 63 62 61 62 62 63 65 67 67 67 67
57 56 56 56 57 57 57 57 56 56 56 57 57 57 58 54 47 48 57 61 59 59 59 60 60 60 60 61 62 63 64 66 67
55 55 54 55 56 56 56 55 54 53 53 53 54 56 59 56 48 51 57 61 58 58 59 60 60 60 60 60 60 61 62 62 63
52 51 53 52 53 53 54 53 53 53 53 53 53 57 59 54 48 55 58 60 59 61 61 61 60 60 61 60 60 61 60 60 61
49 50 50 50 50 51 51 51 52 55 56 54 56 56 48 45 52 58 62 61 58 59 59 60 61 60 59 59 58 60 61 61 60
45 51 52 51 52 52 52 52 54 51 42 45 48 42 43 46 55 60 61 60 61 62 62 62 63 63 63 61 59 61 61 60 60
43 44 44 45 49 44 45 44 43 42 42 41 39 39 42 44 58 61 61 60 60 60 61 61 61 61 62 63 63 63 63 63 63
42 42 43 43 44 42 43 44 41 41 40 39 39 39 41 43 57 60 61 60 59 59 60 60 59 59 61 62 62 62 62 62 62
44 42 43 43 44 44 43 43 42 41 41 41 41 42 42 43 55 57 59 59 58 58 58 58 58 58 59 60 60 60 60 60 60
44 43 43 43 44 44 44 42 42 42 42 42 47 48 48 44 54 53 54 56 53 52 53 55 57 58 57 57 58 58 57 58 58
42 42 42 43 44 43 43 42 43 43 43 44 50 49 48 52 49 49 49 52 54 51 50 51 54 56 56 56 55 55 55 55 56
41 42 42 43 43 42 42 42 42 43 44 43 50 53 54 48 47 46 47 46 46 49 50 50 53 53 54 54 54 54 54 54 55
41 41 41 42 42 42 42 42 42 42 43 43 48 52 52 50 47 45 45 45 45 45 49 51 52 51 50 51 53 53 52 52 53
40 41 41 42 41 41 40 40 41 43 43 42 45 50 51 50 48 47 46 45 44 44 48 50 50 49 47 49 50 51 50 50 51
39 40 40 40 40 39 39 41 41 42 43 43 43 48 50 50 50 49 48 45 42 42 48 50 48 45 47 46 46 49 48 49 50
38 39 39 39 39 39 39 41 41 42 43 41 42 38 42 45 45 44 45 42 41 42 44 46 43 43 44 45 43 45 46 49 50
41 39 39 39 39 39 38 40 40 41 41 41 40 37 36 38 42 42 42 40 39 40 41 44 42 40 41 42 43 43 44 46 50
40 40 39 38 39 38 38 39 39 39 38 40 39 39 39 37 36 39 38 37 35 36 37 39 41 39 40 43 45 42 42 44 48
40 40 39 37 39 38 37 37 37 38 36 36 37 35 36 38 38 34 33 35 35 36 35 37 37 38 39 38 38 41 39 43 45
Lifted_Index
8 8 8 8 8 8 8 9 9 8 8 8 8 8 7 7 7 6 5 4 3 3 1 -1 -2 -2 -2 -2 -3 -3 -3 -3 -3
8 8 9 9 9 9 9 9 9 9 9 8 8 7 7 7 7 6 4 2 2 2 1 -0 -1 -1 -1 -1 -2 -2 -3 -3 -3
9 10 10 10 10 10 10 10 10 10 9 9 8 7 7 7 6 5 3 2 1 1 1 0 0 -0 -0 -1 -1 -1 -2 -2 -2
10 11 11 11 11 10 10 11 11 11 10 9 8 7 7 6 6 5 3 2 2 1 1 1 0 -0 -0 -1 -1 -1 -1 -1 -1
12 12 12 12 11 11 11 11 11 11 10 9 9 8 7 7 6 5 3 2 2 1 1 1 0 -0 -0 -0 -0 -0 -0 -0 -0
12 13 13 12 12 12 12 11 11 11 10 10 9 9 8 7 6 4 3 2 2 1 1 0 -0 -0 -0 -0 -0 -0 -0 -0 0
13 13 13 13 12 12 12 12 11 11 11 11 10 10 9 7 5 4 3 2 2 1 1 0 -0 -1 -1 -0 -0 -1 -1 -1 -0
13 13 13 13 13 13 12 12 12 12 11 11 11 10 9 8 5 4 3 3 2 2 1 1 1 0 -0 -1 -1 -1 -1 -1 -1
13 13 13 13 13 13 13 12 12 12 11 11 11 10 10 8 6 4 4 4 4 3 3 3 2 2 1 -0 -0 -0 -0 -1 -1
13 13 13 13 13 13 13 12 12 12 11 11 10 9 9 8 6 5 5 5 5 5 5 4 4 4 2 1 1 1 1 1 1
13 13 13 13 13 13 13 12 12 12 11 10 9 8 8 8 6 6 7 7 7 7 7 6 6 5 4 3 3 3 3 3 2
13 14 14 14 13 13 13 13 12 12 11 10 8 7 7 7 7 7 7 8 8 9 8 8 7 6 5 5 4 4 4 4 4
14 14 14 14 14 14 13 13 12 12 12 10 8 7 7 7 7 8 8 9 9 9 9 9 8 7 7 6 6 6 6 6 5
14 14 14 14 14 14 14 13 13 12 12 11 9 7 7 8 8 8 9 9 10 10 10 9 9 9 9 8 8 7 7 7 7
14 14 14 14 14 14 14 13 13 13 12 11 10 8 8 8 8 8 9 9 10 11 10 9 9 10 10 10 9 9 9 9 8
14 14 14 14 14 14 13 13 13 13 13 12 11 9 8 8 8 8 9 10 11 11 10 10 10 11 11 11 11 11 11 10 9
14 14 14 14 14 13 13 13 12 13 13 12 11 10 9 9 9 9 10 10 11 12 11 10 11 12 12 12 13 13 12 11 10
14 14 14 14 13 13 13 13 13 12 13 13 12 11 10 10 10 11 11 11 12 12 12 11 11 12 13 13 14 14 13 12 10
14 14 14 14 13 13 13 13 13 12 12 12 12 12 12 11 11 11 11 12 12 12 12 12 11 11 12 13 14 15 14 13 12
14 14 14 13 13 13 13 13 13 12 12 12 12 12 12 12 11 10 11 12 12 13 13 12 12 11 12 13 14 15 15 13 12